Tracking 23940 objects as of 1-Dec-2021
HD Live streaming from Space Station
objects crossing your sky now

PEGASUS DEB

Track PEGASUS DEB now!
10-day predictions


NORAD ID: 24973
Int'l Code: 1994-029ACF
Perigee: 576.3 km
Apogee: 1,057.9 km
Inclination: 82.0 °
Period: 101.1 minutes
Semi major axis: 7188 km
RCS: 0.0085 m2 (small)
Launch date: May 19, 1994
Source: United States (US)
Launch site: AIR FORCE WESTERN TEST RANGE (AFWTR)

Note: This is SATELLITE DEBRIS
aabbcc
Your satellite tracking list
Your tracking list is empty




NASA's NSSDC Master Catalog

Two Line Element Set (TLE):
1 24973U 94029ACF 21334.22526875  .00000372  00000-0  82965-4 0  9995
2 24973  82.0166 129.9366 0335000  72.9995  96.0903 14.24565362311705
Source of the keplerian elements: AFSPC